DLH8LW EDDS-EDDH

Flight info

Callsign DLH8LW
Flight time 0h 53m
Altitude 35000
Route OKIBA4H OKIBA N851 RIMKI Z99 LOHRE DCT MASEK DCT ELNAT P605 NOLGO NOLGO6A
Aircraft A20N/M-SDE2E3FGHIRWXY/LB1

Departure

Time 2026-04-21 11:55
Airport Stuttgart Airport (EDDS)

Arrival

Time 2026-04-21 12:49
Airport Hamburg Helmut Schmidt Airport (EDDH)
Time Latitude Longitude Altitude Speed Heading
2026-04-21 11:38 48.68917 9.19512 1307 ft 0 kts 344°
2026-04-21 11:49 48.68913 9.19514 1307 ft 2 kts 344°
2026-04-21 11:49 48.68899 9.19520 1307 ft 2 kts 344°
2026-04-21 11:49 48.68884 9.19526 1306 ft 2 kts 343°
2026-04-21 11:49 48.68870 9.19532 1306 ft 2 kts 344°
2026-04-21 11:50 48.68855 9.19539 1306 ft 2 kts 349°
2026-04-21 11:50 48.68841 9.19534 1306 ft 2 kts 36°
2026-04-21 11:50 48.68833 9.19520 1307 ft 0 kts 69°
2026-04-21 11:50 48.68831 9.19510 1307 ft 1 kts 75°
2026-04-21 11:51 48.68830 9.19508 1307 ft 0 kts 73°
2026-04-21 11:53 48.68831 9.19510 1307 ft 1 kts 73°
2026-04-21 11:53 48.68840 9.19557 1305 ft 8 kts 72°
2026-04-21 11:53 48.68864 9.19673 1302 ft 14 kts 72°
2026-04-21 11:53 48.68891 9.19820 1298 ft 12 kts 82°
2026-04-21 11:54 48.68827 9.19909 1294 ft 14 kts 156°
2026-04-21 11:54 48.68724 9.19973 1291 ft 17 kts 161°
2026-04-21 11:54 48.68611 9.20043 1289 ft 18 kts 130°
2026-04-21 11:54 48.68617 9.20244 1284 ft 22 kts 73°
2026-04-21 11:55 48.68717 9.20754 1271 ft 88 kts 75°
2026-04-21 11:55 48.68951 9.22007 1233 ft 155 kts 74°
2026-04-21 11:55 48.69269 9.23693 1699 ft 170 kts 73°
2026-04-21 11:55 48.69588 9.25390 2476 ft 173 kts 71°
2026-04-21 11:56 48.69938 9.27110 3303 ft 174 kts 72°
2026-04-21 11:56 48.70227 9.28870 4135 ft 174 kts 76°
2026-04-21 11:56 48.70444 9.30648 4928 ft 175 kts 79°
2026-04-21 11:56 48.70707 9.32477 5534 ft 186 kts 71°
2026-04-21 11:57 48.71132 9.34386 6049 ft 203 kts 70°
2026-04-21 11:57 48.71597 9.36492 6566 ft 221 kts 71°
2026-04-21 11:57 48.72077 9.38816 7119 ft 239 kts 72°
2026-04-21 11:57 48.72688 9.41152 7956 ft 245 kts 55°
2026-04-21 11:58 48.74032 9.42783 8495 ft 264 kts 20°
2026-04-21 11:58 48.75899 9.42943 9275 ft 277 kts 351°
2026-04-21 11:58 48.77748 9.42279 10199 ft 279 kts 350°
2026-04-21 11:58 48.79675 9.41709 10918 ft 288 kts 351°
2026-04-21 11:59 48.81682 9.41186 11375 ft 305 kts 352°
2026-04-21 11:59 48.83842 9.40649 11799 ft 324 kts 352°
2026-04-21 11:59 48.86143 9.40089 12280 ft 339 kts 352°
2026-04-21 11:59 48.88479 9.39526 13028 ft 345 kts 352°
2026-04-21 12:00 48.90833 9.38962 13685 ft 348 kts 351°
2026-04-21 12:00 48.93234 9.38388 14059 ft 349 kts 351°
2026-04-21 12:00 48.95620 9.37815 14137 ft 349 kts 351°
2026-04-21 12:00 48.98034 9.37235 14150 ft 349 kts 351°
2026-04-21 12:01 49.00428 9.36661 14298 ft 355 kts 351°
2026-04-21 12:01 49.02880 9.36075 15085 ft 357 kts 351°
2026-04-21 12:01 49.05296 9.35498 15959 ft 357 kts 351°
2026-04-21 12:01 49.07751 9.34911 16714 ft 359 kts 351°
2026-04-21 12:02 49.10231 9.34319 17423 ft 362 kts 351°
2026-04-21 12:02 49.15225 9.33123 18822 ft 368 kts 350°
2026-04-21 12:02 49.17757 9.32513 19493 ft 371 kts 350°
2026-04-21 12:03 49.20333 9.31914 20133 ft 375 kts 352°
2026-04-21 12:03 49.22955 9.31509 20754 ft 378 kts 355°
2026-04-21 12:03 49.25581 9.31274 21371 ft 382 kts 356°
2026-04-21 12:03 49.28222 9.31077 21976 ft 386 kts 356°
2026-04-21 12:04 49.30919 9.30877 22591 ft 389 kts 356°
2026-04-21 12:04 49.33610 9.30716 23183 ft 392 kts 358°
2026-04-21 12:04 49.36375 9.30769 23762 ft 396 kts
2026-04-21 12:04 49.39104 9.31058 24337 ft 399 kts
2026-04-21 12:05 49.41884 9.31455 24883 ft 402 kts
2026-04-21 12:05 49.44652 9.31870 25385 ft 405 kts
2026-04-21 12:05 49.47476 9.32296 25868 ft 408 kts
2026-04-21 12:05 49.50293 9.32719 26330 ft 411 kts
2026-04-21 12:06 49.53169 9.33148 26786 ft 414 kts
2026-04-21 12:06 49.56007 9.33571 27222 ft 417 kts
2026-04-21 12:06 49.58917 9.34005 27660 ft 419 kts
2026-04-21 12:06 49.61803 9.34435 28060 ft 422 kts
2026-04-21 12:07 49.64744 9.34874 28449 ft 424 kts
2026-04-21 12:07 49.67654 9.35307 28818 ft 427 kts
2026-04-21 12:07 49.70620 9.35751 29184 ft 429 kts
2026-04-21 12:07 49.73571 9.36297 29520 ft 431 kts
2026-04-21 12:08 49.76540 9.37095 29840 ft 433 kts 10°
2026-04-21 12:08 49.79470 9.38115 30137 ft 436 kts 12°
2026-04-21 12:08 49.82422 9.39234 30443 ft 436 kts 12°
2026-04-21 12:08 49.85365 9.40375 30793 ft 435 kts 12°
2026-04-21 12:09 49.88258 9.41498 31104 ft 434 kts 12°
2026-04-21 12:09 49.91186 9.42633 31368 ft 433 kts 12°
2026-04-21 12:09 49.94103 9.43762 31622 ft 433 kts 12°
2026-04-21 12:09 49.97024 9.44892 31867 ft 433 kts 12°
2026-04-21 12:10 49.99920 9.46013 32100 ft 433 kts 12°
2026-04-21 12:10 50.02858 9.47150 32330 ft 433 kts 12°
2026-04-21 12:10 50.05774 9.48160 32551 ft 433 kts
2026-04-21 12:10 50.08740 9.48929 32771 ft 433 kts
2026-04-21 12:11 50.11731 9.49491 33003 ft 432 kts
2026-04-21 12:11 50.14732 9.49997 33239 ft 431 kts
2026-04-21 12:11 50.17690 9.50484 33453 ft 431 kts
2026-04-21 12:11 50.20695 9.50981 33642 ft 432 kts
2026-04-21 12:12 50.23669 9.51475 33828 ft 433 kts
2026-04-21 12:12 50.26647 9.51971 34003 ft 434 kts
2026-04-21 12:12 50.29660 9.52475 34186 ft 436 kts
2026-04-21 12:12 50.32647 9.52976 34359 ft 437 kts
2026-04-21 12:13 50.35677 9.53487 34536 ft 438 kts
2026-04-21 12:13 50.38718 9.54001 34731 ft 439 kts
2026-04-21 12:13 50.41720 9.54508 34913 ft 439 kts
2026-04-21 12:13 50.44742 9.55020 35081 ft 440 kts
2026-04-21 12:14 50.47798 9.55539 35162 ft 442 kts
2026-04-21 12:14 50.53887 9.56575 35170 ft 442 kts
2026-04-21 12:15 50.59974 9.57614 35175 ft 441 kts
2026-04-21 12:15 50.66047 9.58654 35179 ft 442 kts
2026-04-21 12:16 50.72174 9.59703 35188 ft 443 kts
2026-04-21 12:16 50.78250 9.60832 35189 ft 443 kts
2026-04-21 12:17 50.84388 9.62031 35196 ft 443 kts
2026-04-21 12:17 50.90462 9.63217 35200 ft 443 kts
2026-04-21 12:18 50.96574 9.64410 35205 ft 443 kts
2026-04-21 12:18 51.02667 9.65601 35213 ft 443 kts
2026-04-21 12:19 51.08801 9.66805 35215 ft 444 kts
2026-04-21 12:19 51.14928 9.68012 35215 ft 443 kts
2026-04-21 12:20 51.21028 9.69208 35230 ft 443 kts
2026-04-21 12:20 51.27130 9.70208 35224 ft 443 kts
2026-04-21 12:21 51.33246 9.71174 35223 ft 442 kts
2026-04-21 12:21 51.39370 9.72164 35229 ft 443 kts
2026-04-21 12:22 51.45490 9.73164 35231 ft 443 kts
2026-04-21 12:22 51.51589 9.74244 35233 ft 443 kts
2026-04-21 12:23 51.57686 9.75418 35229 ft 443 kts
2026-04-21 12:23 51.63798 9.76582 35240 ft 442 kts
2026-04-21 12:24 51.69888 9.77733 35241 ft 443 kts
2026-04-21 12:24 51.76002 9.78896 35259 ft 443 kts
2026-04-21 12:25 51.82064 9.80056 35155 ft 438 kts
2026-04-21 12:25 51.85076 9.80631 34719 ft 436 kts
2026-04-21 12:25 51.88079 9.81205 34203 ft 435 kts
2026-04-21 12:25 51.91075 9.81776 33773 ft 434 kts
2026-04-21 12:26 51.94020 9.82341 33311 ft 433 kts
2026-04-21 12:26 51.97032 9.82924 32845 ft 433 kts 10°
2026-04-21 12:26 52.00008 9.83502 32383 ft 434 kts 10°
2026-04-21 12:26 52.03006 9.84084 31900 ft 435 kts 11°
2026-04-21 12:27 52.06014 9.84671 31344 ft 436 kts 11°
2026-04-21 12:27 52.09020 9.85259 30737 ft 436 kts 11°
2026-04-21 12:27 52.12003 9.85849 30106 ft 436 kts 11°
2026-04-21 12:27 52.15000 9.86439 29475 ft 433 kts 12°
2026-04-21 12:28 52.17989 9.87025 28836 ft 429 kts 12°
2026-04-21 12:28 52.20929 9.87602 28202 ft 426 kts 12°
2026-04-21 12:28 52.23851 9.88283 27563 ft 422 kts 14°
2026-04-21 12:28 52.26680 9.89190 26931 ft 417 kts 17°
2026-04-21 12:29 52.29487 9.90324 26289 ft 413 kts 19°
2026-04-21 12:29 52.32229 9.91517 25641 ft 410 kts 20°
2026-04-21 12:29 52.34963 9.92728 24981 ft 407 kts 20°
2026-04-21 12:29 52.37638 9.93913 24590 ft 397 kts 19°
2026-04-21 12:30 52.40274 9.95077 24223 ft 388 kts 20°
2026-04-21 12:30 52.42865 9.96227 23658 ft 384 kts 20°
2026-04-21 12:30 52.45410 9.97358 23066 ft 381 kts 19°
2026-04-21 12:30 52.47928 9.98475 22502 ft 377 kts 19°
2026-04-21 12:31 52.50443 9.99591 21919 ft 373 kts 19°
2026-04-21 12:31 52.52949 10.00703 21347 ft 370 kts 19°
2026-04-21 12:31 52.55403 10.01794 20777 ft 367 kts 19°
2026-04-21 12:31 52.57870 10.02891 20201 ft 364 kts 19°
2026-04-21 12:32 52.60283 10.03965 19633 ft 361 kts 19°
2026-04-21 12:32 52.62710 10.05001 19074 ft 360 kts 15°
2026-04-21 12:32 52.65202 10.04987 18435 ft 372 kts 352°
2026-04-21 12:32 52.67653 10.03565 17933 ft 373 kts 344°
2026-04-21 12:33 52.70065 10.02065 17418 ft 369 kts 345°
2026-04-21 12:33 52.72433 10.00654 16900 ft 365 kts 345°
2026-04-21 12:33 52.74822 9.99264 16390 ft 362 kts 346°
2026-04-21 12:33 52.77174 9.97915 15874 ft 358 kts 346°
2026-04-21 12:34 52.79513 9.96585 15231 ft 354 kts 346°
2026-04-21 12:34 52.81818 9.95282 14614 ft 354 kts 346°
2026-04-21 12:34 52.84144 9.93969 14077 ft 350 kts 346°
2026-04-21 12:34 52.86404 9.92693 13399 ft 346 kts 346°
2026-04-21 12:35 52.88667 9.91417 12619 ft 343 kts 346°
2026-04-21 12:35 52.90919 9.90146 11860 ft 340 kts 346°
2026-04-21 12:35 52.93122 9.88903 11117 ft 336 kts 346°
2026-04-21 12:35 52.95318 9.87662 10468 ft 335 kts 345°
2026-04-21 12:36 52.97477 9.86435 10089 ft 320 kts 345°
2026-04-21 12:36 52.99522 9.85267 9757 ft 301 kts 346°
2026-04-21 12:36 53.01432 9.84176 9440 ft 284 kts 346°
2026-04-21 12:36 53.03286 9.83123 8966 ft 279 kts 346°
2026-04-21 12:37 53.05107 9.82095 8573 ft 277 kts 346°
2026-04-21 12:37 53.06917 9.81071 8213 ft 275 kts 346°
2026-04-21 12:37 53.08735 9.80039 7832 ft 274 kts 346°
2026-04-21 12:37 53.10503 9.79035 7456 ft 272 kts 346°
2026-04-21 12:38 53.12307 9.78007 7087 ft 271 kts 346°
2026-04-21 12:38 53.14069 9.77000 6775 ft 268 kts 346°
2026-04-21 12:38 53.15826 9.75995 6476 ft 268 kts 346°
2026-04-21 12:38 53.17588 9.74988 6167 ft 266 kts 346°
2026-04-21 12:39 53.19328 9.73994 5857 ft 265 kts 346°
2026-04-21 12:39 53.21063 9.73002 5553 ft 264 kts 345°
2026-04-21 12:39 53.22782 9.72016 5264 ft 262 kts 345°
2026-04-21 12:39 53.24497 9.71033 5032 ft 261 kts 345°
2026-04-21 12:40 53.26209 9.70050 4854 ft 261 kts 345°
2026-04-21 12:40 53.27925 9.69065 4679 ft 261 kts 345°
2026-04-21 12:40 53.29644 9.68076 4497 ft 260 kts 345°
2026-04-21 12:40 53.31344 9.67097 4323 ft 259 kts 345°
2026-04-21 12:41 53.33041 9.66119 4147 ft 258 kts 345°
2026-04-21 12:41 53.34728 9.65145 3980 ft 257 kts 345°
2026-04-21 12:41 53.36422 9.64167 3947 ft 256 kts 345°
2026-04-21 12:41 53.38081 9.63207 3942 ft 247 kts 345°
2026-04-21 12:42 53.39646 9.62295 3938 ft 232 kts 346°
2026-04-21 12:42 53.41150 9.61421 3939 ft 225 kts 346°
2026-04-21 12:42 53.42639 9.60669 3935 ft 222 kts 358°
2026-04-21 12:42 53.44090 9.61109 3933 ft 213 kts 34°
2026-04-21 12:43 53.45192 9.62724 3948 ft 211 kts 49°
2026-04-21 12:43 53.46175 9.64569 3947 ft 212 kts 51°
2026-04-21 12:43 53.47125 9.66446 3947 ft 212 kts 52°
2026-04-21 12:43 53.48066 9.68347 3949 ft 212 kts 52°
2026-04-21 12:44 53.49007 9.70270 3931 ft 212 kts 52°
2026-04-21 12:44 53.49921 9.72141 3749 ft 207 kts 52°
2026-04-21 12:44 53.50833 9.74007 3467 ft 204 kts 52°
2026-04-21 12:44 53.51715 9.75812 3189 ft 194 kts 51°
2026-04-21 12:45 53.52547 9.77511 2949 ft 184 kts 52°
2026-04-21 12:45 53.53326 9.79101 2788 ft 173 kts 51°
2026-04-21 12:45 53.54083 9.80643 2531 ft 169 kts 52°
2026-04-21 12:45 53.54820 9.82145 2282 ft 164 kts 52°
2026-04-21 12:46 53.55530 9.83589 2047 ft 159 kts 52°
2026-04-21 12:46 53.56224 9.84998 1826 ft 155 kts 52°
2026-04-21 12:46 53.56890 9.86353 1642 ft 144 kts 51°
2026-04-21 12:46 53.57492 9.87575 1447 ft 131 kts 51°
2026-04-21 12:47 53.58048 9.88707 1267 ft 122 kts 50°
2026-04-21 12:47 53.58593 9.89809 1114 ft 121 kts 52°
2026-04-21 12:47 53.59127 9.90893 960 ft 121 kts 53°
2026-04-21 12:47 53.59662 9.91982 810 ft 121 kts 50°
2026-04-21 12:48 53.60215 9.93108 681 ft 142 kts 50°
2026-04-21 12:48 53.60856 9.94397 466 ft 140 kts 53°
2026-04-21 12:48 53.61443 9.95592 249 ft 126 kts 52°
2026-04-21 12:48 53.61978 9.96693 78 ft 118 kts 44°
2026-04-21 12:49 53.62453 9.97626 62 ft 83 kts 50°
2026-04-21 12:49 53.62728 9.98199 62 ft 53 kts 50°
2026-04-21 12:49 53.62951 9.98643 62 ft 46 kts 51°
2026-04-21 12:49 53.63148 9.99051 62 ft 41 kts 51°
2026-04-21 12:50 53.63273 9.99318 62 ft 23 kts 63°
2026-04-21 12:50 53.63289 9.99548 62 ft 14 kts 98°
2026-04-21 12:50 53.63273 9.99712 62 ft 13 kts 95°
2026-04-21 12:50 53.63319 9.99847 62 ft 14 kts 47°
2026-04-21 12:51 53.63385 9.99974 62 ft 14 kts 50°
2026-04-21 12:51 53.63428 10.00081 62 ft 7 kts 79°
2026-04-21 12:51 53.63409 10.00167 62 ft 8 kts 120°
2026-04-21 12:51 53.63377 10.00222 62 ft 6 kts 159°
2026-04-21 12:52 53.63332 10.00232 62 ft 7 kts 175°
2026-04-21 12:52 53.63293 10.00251 62 ft 2 kts 118°
2026-04-21 12:52 53.63291 10.00281 62 ft 3 kts 89°
2026-04-21 12:52 53.63292 10.00326 62 ft 4 kts 88°
2026-04-21 12:53 53.63293 10.00355 62 ft 0 kts 87°